Погода в Обергургле

Австрия     46°52′12″N   11°01′38″E
темп.,
°C
ветер,
м/с
пор.,
м/с
влажн.,
%
обл.,
%
осадки,
мм/ч
давл.,
гПа
погр.,
м
27 января, ср
ср2701:00−17сз54738 0.0 102534
04:00−16сз446645 0.0 102329
07:00−14сз335450 0.0 102222
10:00−9сз116692 0.0 1019102
13:00−8ю119096 0.8 1017197
16:00−8ююв1196100 2.4 1016136
19:00−9сз1195100 4.5 101738
22:00−9зсз228899 0.6 101734
28 января, чт
чт2801:00−8зсз3386100 0.9 101736
04:00−8сз3381100 0.1 101626
07:00−6зсз2284100 0.2 101530
10:00−3зюз128695 0.3 1013127
13:00−2ююз239893 1.4 1010199
16:00−3ююз1298100 3.4 1009121
19:00−3зсз1197100 11.9 101047
22:00−3з229499 4.2 101050
29 января, пт
пт2901:00−3сз338293 5.6 101138
04:00−5сз337522 0.0 100924
07:00−4зсз116861 0.0 100621
10:00−2ююз2382100 0.1 1005232
13:00−2зюз1297100 0.8 1004194
16:00−3сз3381100 1.9 1004104
19:00−8сз448090 2.0 100429
22:00−7зсз338848 1.1 100550
30 января, сб
сб3001:00−7зсз229162 2.1 100635
04:00−9сз437948 0.2 100634
07:00−10сз436424 0.2 100629
10:00−4зюз115983 0.0 100494
13:00−2ю117290 0.0 1000196
16:00−3юз118699 0.0 99722
19:00−6с1176100 0.0 99921
22:00−6ссз2284100 0.1 99930
31 января, вс
вс3101:00−7ссз3383100 0.1 99926
04:00−7ссз3380100 0.0 99827
07:00−8ссз4380100 0.0 99830
10:00−4ссз2281100 0.0 99981
13:00−3ююз1180100 0.0 999309
16:00−4ююв019548 0.1 99968
19:00−8сз118843 0.1 100121
22:00−10зсз118244 0.0 100121